YUNHAI-2 2 (43910 NORAD) Tracking and Keplerian Element Data

This shows tracking and keplerian element data for the satellite.

Feedback or suggestion? Click here.




ElementValue
Catalog43910
NameYUNHAI-2 2
Epoch Orbit293
Epoch Day17.72283909
Epoch Year2019
RAAN91.0482
Inclination50.0158
Eccentricity0.0007014
Argument of Perigee340.3334
Mean Anonmoly163.7599
Mean Motion15.15492535
Decay Rate7.65E-06
L11 43910U 18112B 19017.72283909 .00000765 00000-0 55869-4 0 9993
L22 43910 50.0158 91.0482 0007014 340.3334 163.7599 15.15492535 2938

Live tracking and technical data element details for YUNHAI-2 2 (NORAD 43910). YUNHAI-2 2 can be tracked NOW for your location showing map with azimuth and elevation plus other details from your city location.

Track the satellite on the map from your city or location and see movement details for azimuth, elevation, latitude, longitude, range, height, and movement on the map or in text.







IsCatalogInMostPopularTable: catalog: 43910, numindb: 13
Update: records affected: 1



GetName: 43910 YUNHAI-2 2

Hit Count: updated at: Fri, 18 Jan 2019 21:46:32 GMT